CW8164 Weather Reports


Display with metric or nautical units.
time (UTC)temp
F
wind
direction
speed
MPH
gust
MPH
rain 1hr
in
rain 24hr
in
rain mn
in
humidity
%
barometer
mb
20260902125402 61 57 1.0 3.0 0.00 0.00 0.00 75 1009.1
20260902124903 61 104 0.0 5.0 0.00 0.00 0.00 75 1009.2
20260902124404 61 108 1.0 5.0 0.00 0.00 0.00 75 1009.3
20260902123403 61 116 0.0 2.0 0.00 0.00 0.00 75 1009.3
20260902122904 60 127 1.0 2.0 0.00 0.00 0.00 75 1009.4
20260902122403 60 90 1.0 2.0 0.00 0.00 0.00 75 1009.4
20260902121902 60 105 0.0 2.0 0.00 0.00 0.00 75 1009.5
20260902121403 60 87 1.0 5.0 0.00 0.00 0.00 75 1009.5
20260902120903 60 74 0.0 5.0 0.00 0.00 0.00 76 1009.6
20260902120403 60 75 2.0 5.0 0.00 0.00 0.00 76 1009.6
20260902115903 60 103 0.0 3.0 0.00 0.00 0.00 76 1009.7
20260902115403 60 113 1.0 3.0 0.00 0.00 0.00 76 1009.6
20260902114903 60 92 1.0 3.0 0.00 0.00 0.00 77 1009.7
20260902114403 60 97 1.0 2.0 0.00 0.00 0.00 77 1009.8
20260902113903 60 78 0.0 0.0 0.00 0.00 0.00 77 1009.8
20260902113403 60 92 0.0 1.0 0.00 0.00 0.00 77 1009.9
20260902112903 60 84 0.0 2.0 0.00 0.00 0.00 77 1009.9
20260902111904 60 102 0.0 2.0 0.00 0.00 0.00 77 1010.1
20260902110903 60 89 0.0 3.0 0.00 0.00 0.00 77 1010.1
20260902110403 60 74 1.0 3.0 0.00 0.00 0.00 77 1010.1
20260902105903 60 88 1.0 3.0 0.00 0.00 0.00 76 1010.2
20260902105404 60 89 0.0 1.0 0.00 0.00 0.00 77 1010.2
20260902104904 60 95 0.0 3.0 0.00 0.00 0.00 77 1010.2
20260902103903 60 100 0.0 1.0 0.00 0.00 0.00 76 1010.3
20260902103403 60 66 1.0 2.0 0.00 0.00 0.00 77 1010.4
20260902102904 60 61 0.0 3.0 0.00 0.00 0.00 76 1010.5
20260902102404 60 103 0.0 3.0 0.00 0.00 0.00 76 1010.4
20260902101403 61 75 0.0 3.0 0.00 0.00 0.00 76 1010.5
20260902100904 61 65 0.0 5.0 0.00 0.00 0.00 77 1010.5
20260902095904 61 121 2.0 6.0 0.00 0.00 0.00 77 1010.5
20260902095403 61 115 1.0 5.0 0.00 0.00 0.00 77 1010.6
20260902094903 60 95 0.0 5.0 0.00 0.00 0.00 77 1010.6
20260902094403 60 107 0.0 3.0 0.00 0.00 0.00 77 1010.7
20260902093903 60 121 0.0 3.0 0.00 0.00 0.00 77 1010.6
20260902093403 60 85 1.0 3.0 0.00 0.00 0.00 77 1010.7
20260902092903 60 143 0.0 2.0 0.00 0.00 0.00 77 1010.8
20260902091903 61 145 0.0 2.0 0.00 0.00 0.00 76 1010.8
20260902091403 61 118 0.0 3.0 0.00 0.00 0.00 76 1010.9
20260902090903 61 136 0.0 3.0 0.00 0.00 0.00 76 1010.9
20260902090403 61 142 0.0 3.0 0.00 0.00 0.00 76 1011.0
20260902085903 61 129 1.0 3.0 0.00 0.00 0.00 76 1011.1
20260902085404 61 138 0.0 5.0 0.00 0.00 0.00 76 1011.1
20260902084403 61 149 1.0 2.0 0.00 0.00 0.00 75 1011.1
20260902083904 62 118 0.0 1.0 0.00 0.00 0.00 75 1011.0
20260902083403 62 127 0.0 1.0 0.00 0.00 0.00 75 1011.0
20260902082903 62 165 0.0 0.0 0.00 0.00 0.00 75 1010.9
20260902082403 62 165 0.0 2.0 0.00 0.00 0.00 74 1010.8
20260902081903 62 134 0.0 2.0 0.00 0.00 0.00 74 1010.8
20260902081403 62 147 1.0 5.0 0.00 0.00 0.00 74 1010.9
20260902080902 62 167 2.0 5.0 0.00 0.00 0.00 74 1011.0
20260902080403 62 132 1.0 2.0 0.00 0.00 0.00 74 1011.0
20260902075903 62 142 0.0 2.0 0.00 0.00 0.00 74 1011.0
20260902075403 62 98 0.0 1.0 0.00 0.00 0.00 74 1011.0
20260902074903 62 126 0.0 3.0 0.00 0.00 0.00 74 1011.1
20260902074402 62 143 0.0 3.0 0.00 0.00 0.00 74 1011.1
20260902073404 62 113 0.0 2.0 0.00 0.00 0.00 73 1011.1
20260902072903 62 54 0.0 2.0 0.00 0.00 0.00 73 1011.2
20260902072403 62 117 0.0 2.0 0.00 0.00 0.00 73 1011.4
20260902071903 62 227 0.0 3.0 0.00 0.00 0.00 73 1011.4
20260902071404 62 131 0.0 3.0 0.00 0.00 0.00 73 1011.5
20260902065903 62 204 1.0 5.0 0.00 0.00 0.00 73 1011.4
20260902065403 62 131 2.0 3.0 0.00 0.00 0.00 73 1011.5
20260902064903 62 142 0.0 3.0 0.00 0.00 0.00 73 1011.4
20260902064404 62 168 1.0 3.0 0.00 0.00 0.00 73 1011.5
20260902063903 62 163 0.0 2.0 0.00 0.00 0.00 73 1011.5
20260902063403 62 144 0.0 2.0 0.00 0.00 0.00 73 1011.4
20260902062903 62 160 0.0 3.0 0.00 0.00 0.00 73 1011.4
20260902062403 63 178 1.0 3.0 0.00 0.00 0.00 73 1011.4
20260902061903 63 129 0.0 3.0 0.00 0.00 0.00 73 1011.4
20260902061403 63 115 0.0 3.0 0.00 0.00 0.00 73 1011.4
20260902060903 63 114 0.0 2.0 0.00 0.00 0.00 73 1011.4
20260902060403 63 141 0.0 3.0 0.00 0.00 0.00 73 1011.6
20260902055903 63 165 1.0 3.0 0.00 0.00 0.00 72 1011.6
20260902055403 63 266 2.0 5.0 0.00 0.00 0.00 72 1011.7
20260902054403 63 215 1.0 5.0 0.00 0.00 0.00 72 1011.7
20260902053903 63 202 2.0 5.0 0.00 0.00 0.00 72 1011.8
20260902052904 63 248 1.0 5.0 0.00 0.00 0.00 71 1011.7
20260902052403 63 161 0.0 5.0 0.00 0.00 0.00 71 1011.7
20260902051903 63 240 0.0 2.0 0.00 0.00 0.00 71 1011.6
20260902051403 64 244 1.0 2.0 0.00 0.00 0.00 71 1011.6
20260902050403 64 234 0.0 2.0 0.00 0.00 0.00 71 1011.4
20260902045903 64 217 0.0 2.0 0.00 0.00 0.00 70 1011.5
20260902045403 64 232 0.0 2.0 0.00 0.00 0.00 71 1011.5
20260902044903 64 184 0.0 2.0 0.00 0.00 0.00 70 1011.4
20260902044403 64 220 1.0 2.0 0.00 0.00 0.00 70 1011.4
20260902043903 64 225 0.0 5.0 0.00 0.00 0.00 70 1011.4
20260902042903 64 199 0.0 2.0 0.00 0.00 0.00 69 1011.5
20260902042403 64 246 0.0 2.0 0.00 0.00 0.00 70 1011.4
20260902041903 64 168 0.0 2.0 0.00 0.00 0.00 69 1011.4
20260902041403 64 216 1.0 2.0 0.00 0.00 0.00 69 1011.4
20260902040903 65 238 0.0 7.0 0.00 0.00 0.00 69 1011.4
20260902040403 65 179 1.0 7.0 0.00 0.00 0.00 69 1011.3
20260902035403 65 248 0.0 2.0 0.00 0.00 0.00 69 1011.2
20260902033903 65 206 1.0 3.0 0.00 0.00 0.00 69 1011.1
20260902032903 65 201 2.0 5.0 0.00 0.00 0.00 68 1011.0
20260902032403 65 290 1.0 3.0 0.00 0.00 0.00 68 1011.1
20260902031903 65 226 0.0 1.0 0.00 0.00 0.00 68 1011.1
20260902031403 65 287 0.0 2.0 0.00 0.00 0.00 68 1011.1
20260902030903 65 276 0.0 2.0 0.00 0.00 0.00 68 1011.1
20260902030403 65 209 1.0 2.0 0.00 0.00 0.00 67 1011.1
20260902025904 65 204 0.0 2.0 0.00 0.00 0.00 68 1011.1
20260902025403 65 230 0.0 2.0 0.00 0.00 0.00 68 1011.1
20260902024903 66 292 0.0 2.0 0.00 0.00 0.00 68 1011.0
20260902024403 66 306 0.0 2.0 0.00 0.00 0.00 68 1010.9
20260902023903 66 273 0.0 2.0 0.00 0.00 0.00 67 1011.0
20260902023403 66 239 0.0 2.0 0.00 0.00 0.00 67 1011.0
20260902022904 66 250 0.0 2.0 0.00 0.00 0.00 67 1010.9
20260902022403 66 259 0.0 2.0 0.00 0.00 0.00 66 1010.9
20260902020903 67 232 0.0 0.0 0.00 0.00 0.00 66 1010.9
20260902020403 67 240 0.0 0.0 0.00 0.00 0.00 65 1010.8
20260902015903 67 308 0.0 0.0 0.00 0.00 0.00 64 1010.9
20260902014904 67 159 0.0 3.0 0.00 0.00 0.00 64 1010.8
20260902014403 67 162 0.0 2.0 0.00 0.00 0.00 64 1010.8
20260902013903 67 180 0.0 2.0 0.00 0.00 0.00 65 1010.8
20260902013404 67 229 1.0 3.0 0.00 0.00 0.00 64 1010.8
20260902012903 67 65 0.0 5.0 0.00 0.00 0.00 64 1010.8
20260902012403 67 192 0.0 5.0 0.00 0.00 0.00 64 1010.8
20260902011903 67 239 0.0 2.0 0.00 0.00 0.00 63 1010.8
20260902010903 68 254 1.0 2.0 0.00 0.00 0.00 64 1010.7
20260902010403 68 161 0.0 2.0 0.00 0.00 0.00 64 1010.6
20260902005904 68 178 0.0 2.0 0.00 0.00 0.00 64 1010.6
20260902005403 68 171 0.0 1.0 0.00 0.00 0.00 64 1010.5
20260902004903 69 234 0.0 2.0 0.00 0.00 0.00 62 1010.5
20260902004403 69 185 0.0 2.0 0.00 0.00 0.00 62 1010.4
20260902003903 69 164 0.0 3.0 0.00 0.00 0.00 63 1010.4
20260902003403 69 202 1.0 3.0 0.00 0.00 0.00 62 1010.4
20260902002903 69 154 1.0 3.0 0.00 0.00 0.00 61 1010.4
20260902002403 69 254 0.0 0.0 0.00 0.00 0.00 62 1010.4
20260902001903 69 132 0.0 0.0 0.00 0.00 0.00 63 1010.4
20260902000904 69 192 0.0 0.0 0.00 0.00 0.00 65 1010.5
20260902000403 69 315 0.0 0.0 0.00 0.00 0.00 64 1010.5
20260901235903 69 282 0.0 3.0 0.00 0.00 0.00 63 1010.6
20260901235403 69 253 1.0 7.0 0.00 0.00 0.00 63 1010.6
20260901234903 69 271 0.0 7.0 0.00 0.00 0.00 62 1010.6
20260901234404 69 189 1.0 7.0 0.00 0.00 0.00 62 1010.7
20260901233903 69 119 0.0 3.0 0.00 0.00 0.00 63 1010.8
20260901233403 69 198 0.0 3.0 0.00 0.00 0.00 63 1010.8
20260901232904 69 210 0.0 2.0 0.00 0.00 0.00 64 1010.8
20260901232403 69 296 1.0 2.0 0.00 0.00 0.00 63 1010.9
20260901231903 69 186 0.0 2.0 0.00 0.00 0.00 63 1010.9
20260901231403 69 257 1.0 2.0 0.00 0.00 0.00 63 1011.0
20260901230403 69 195 1.0 3.0 0.00 0.00 0.00 63 1011.0
20260901225904 69 295 1.0 6.0 0.00 0.00 0.00 63 1011.0
20260901225403 69 249 1.0 6.0 0.00 0.00 0.00 63 1011.0
20260901224903 69 201 1.0 6.0 0.00 0.00 0.00 64 1011.0
20260901224404 68 287 1.0 2.0 0.00 0.00 0.00 64 1011.1
20260901223903 68 29 0.0 3.0 0.00 0.00 0.00 64 1011.0
20260901223403 68 199 0.0 3.0 0.00 0.00 0.00 64 1011.1
20260901222903 68 158 1.0 6.0 0.00 0.00 0.00 64 1011.0
20260901222403 68 10 0.0 6.0 0.00 0.00 0.00 65 1011.1
20260901221403 68 78 1.0 3.0 0.00 0.00 0.00 65 1011.0
20260901220904 68 193 0.0 3.0 0.00 0.00 0.00 68 1011.1
20260901220404 67 181 2.0 3.0 0.00 0.00 0.00 66 1011.1
20260901215903 67 231 0.0 2.0 0.00 0.00 0.00 68 1011.1
20260901215403 67 189 0.0 2.0 0.00 0.00 0.00 69 1011.1
20260901214404 66 215 0.0 3.0 0.00 0.00 0.00 69 1011.1
20260901213903 66 212 1.0 3.0 0.00 0.00 0.00 69 1011.2
20260901212903 66 136 0.0 0.0 0.00 0.00 0.00 70 1011.2
20260901212404 66 115 0.0 0.0 0.00 0.00 0.00 69 1011.2
20260901211403 65 151 0.0 0.0 0.00 0.00 0.00 72 1011.3
20260901210903 65 147 0.0 0.0 0.00 0.00 0.00 74 1011.3
20260901210404 65 140 0.0 0.0 0.00 0.00 0.00 73 1011.3
20260901205904 65 84 0.0 0.0 0.00 0.00 0.00 72 1011.3
20260901204903 66 99 0.0 0.0 0.00 0.00 0.00 70 1011.3
20260901204403 66 218 0.0 0.0 0.00 0.00 0.00 72 1011.3
20260901203904 66 62 0.0 2.0 0.00 0.00 0.00 72 1011.3
20260901203404 66 103 0.0 3.0 0.00 0.00 0.00 70 1011.3
20260901202903 66 89 1.0 5.0 0.00 0.00 0.00 71 1011.3
20260901202403 65 10 1.0 5.0 0.00 0.00 0.00 73 1011.3
20260901201903 65 52 0.0 3.0 0.00 0.00 0.00 74 1011.4
20260901201403 65 87 1.0 3.0 0.00 0.00 0.00 74 1011.4
20260901195903 65 124 3.0 5.0 0.00 0.00 0.00 74 1011.4
20260901195403 64 66 1.0 2.0 0.00 0.00 0.00 75 1011.6
20260901194903 64 267 1.0 3.0 0.00 0.00 0.00 75 1011.6
20260901193903 64 86 3.0 6.0 0.00 0.00 0.00 78 1011.7
20260901193404 64 31 2.0 3.0 0.00 0.00 0.00 78 1011.8
20260901192403 65 122 1.0 2.0 0.00 0.00 0.00 75 1011.8
20260901191404 64 256 2.0 3.0 0.00 0.00 0.00 76 1011.9
20260901190904 64 215 1.0 3.0 0.00 0.00 0.00 77 1011.9
20260901185403 63 217 1.0 3.0 0.00 0.00 0.00 80 1012.1
20260901184903 63 138 1.0 3.0 0.00 0.00 0.00 80 1012.1
20260901184403 63 267 0.0 2.0 0.00 0.00 0.00 83 1012.1
20260901183403 62 158 0.0 2.0 0.00 0.00 0.00 85 1012.2
20260901182903 61 285 1.0 3.0 0.00 0.00 0.00 84 1012.2
20260901181903 61 264 1.0 3.0 0.00 0.00 0.00 86 1012.2
20260901181404 61 146 1.0 3.0 0.00 0.00 0.00 85 1012.4
20260901180903 60 169 0.0 5.0 0.00 0.00 0.00 87 1012.4
20260901180403 60 171 2.0 5.0 0.00 0.00 0.00 87 1012.4
20260901175904 60 306 1.0 5.0 0.00 0.00 0.00 87 1012.4
20260901175403 59 242 2.0 5.0 0.00 0.00 0.00 87 1012.4
20260901174903 59 305 0.0 3.0 0.00 0.00 0.00 89 1012.3
20260901174403 59 254 0.0 3.0 0.00 0.00 0.00 88 1012.3
20260901173903 59 128 0.0 2.0 0.00 0.00 0.00 89 1012.3
20260901173403 59 106 1.0 3.0 0.00 0.00 0.00 89 1012.3
20260901172903 59 127 0.0 3.0 0.00 0.00 0.00 89 1012.3
20260901172403 59 218 0.0 3.0 0.00 0.00 0.00 89 1012.2
20260901171903 59 130 0.0 2.0 0.00 0.00 0.00 89 1012.2
20260901170904 59 92 0.0 2.0 0.00 0.00 0.00 89 1012.1
20260901170405 59 127 0.0 2.0 0.00 0.00 0.00 89 1012.1
20260901165903 59 25 0.0 2.0 0.00 0.00 0.00 89 1012.0
20260901165404 58 123 0.0 3.0 0.00 0.00 0.00 89 1012.0
20260901164903 58 99 0.0 3.0 0.00 0.00 0.00 88 1012.0
20260901164404 59 97 2.0 3.0 0.00 0.00 0.00 88 1012.0
20260901163903 59 190 0.0 3.0 0.00 0.00 0.00 88 1012.0
20260901163404 59 146 1.0 3.0 0.00 0.00 0.00 87 1012.0
20260901162903 59 276 1.0 3.0 0.00 0.00 0.00 87 1012.0
20260901162403 59 126 0.0 0.0 0.00 0.00 0.00 86 1012.0
20260901161903 59 90 0.0 0.0 0.00 0.00 0.00 86 1011.9
20260901161404 59 122 0.0 0.0 0.00 0.00 0.00 85 1011.9
20260901160903 60 144 0.0 1.0 0.00 0.00 0.00 84 1011.9
20260901160403 60 86 0.0 1.0 0.00 0.00 0.00 84 1011.9
20260901155903 60 146 0.0 0.0 0.00 0.00 0.00 83 1011.9
20260901155404 60 118 0.0 2.0 0.00 0.00 0.00 82 1012.0
20260901154904 60 94 0.0 3.0 0.00 0.00 0.00 82 1012.0
20260901154403 60 152 0.0 5.0 0.00 0.00 0.00 82 1011.9
20260901153903 60 140 2.0 5.0 0.00 0.00 0.00 81 1011.9
20260901153404 60 156 0.0 2.0 0.00 0.00 0.00 81 1011.9
20260901152904 60 122 0.0 2.0 0.00 0.00 0.00 81 1011.9
20260901152403 60 114 0.0 3.0 0.00 0.00 0.00 81 1011.9
20260901151903 60 137 0.0 3.0 0.00 0.00 0.00 81 1011.7
20260901151403 60 146 1.0 2.0 0.00 0.00 0.00 81 1011.7
20260901150903 60 123 0.0 2.0 0.00 0.00 0.00 81 1011.7
20260901150403 60 78 0.0 2.0 0.00 0.00 0.00 81 1011.7
20260901145404 59 71 1.0 2.0 0.00 0.00 0.00 81 1011.6
20260901144903 59 130 0.0 3.0 0.00 0.00 0.00 81 1011.6
20260901144403 59 128 0.0 3.0 0.00 0.00 0.00 81 1011.6
20260901143904 59 80 1.0 3.0 0.00 0.00 0.00 81 1011.6
20260901143403 59 120 0.0 2.0 0.00 0.00 0.00 82 1011.7
20260901142404 59 102 0.0 2.0 0.00 0.00 0.00 82 1011.6
20260901141903 59 88 0.0 2.0 0.00 0.00 0.00 82 1011.6
20260901141403 59 88 1.0 2.0 0.00 0.00 0.00 82 1011.6
20260901135903 59 97 0.0 2.0 0.00 0.00 0.00 82 1011.6
20260901135403 59 128 0.0 2.0 0.00 0.00 0.00 82 1011.5
20260901134904 59 150 0.0 2.0 0.00 0.00 0.00 82 1011.5
20260901134403 59 129 0.0 2.0 0.00 0.00 0.00 82 1011.5
20260901133903 59 112 0.0 2.0 0.00 0.00 0.00 82 1011.5
20260901133404 59 67 0.0 0.0 0.00 0.00 0.00 83 1011.5
20260901132404 59 78 0.0 2.0 0.00 0.00 0.00 82 1011.5
20260901131904 59 123 0.0 2.0 0.00 0.00 0.00 82 1011.5
20260901130404 59 77 0.0 0.0 0.00 0.00 0.00 82 1011.4
20260901125903 59 77 0.0 3.0 0.00 0.00 0.00 82 1011.4